TimeMST,TemperatureF,Dew PointF,Humidity,Sea Level PressureIn,VisibilityMPH,Wind Direction,Wind SpeedMPH,Gust SpeedMPH,PrecipitationIn,Events,Conditions,WindDirDegrees,DateUTC
12:56 AM,30.9,19.9,64,29.94,10.0,East,3.5,-,N/A,,Clear,90,2012-11-19 07:56:00
1:56 AM,30.0,21.0,69,29.91,10.0,SSE,8.1,-,N/A,,Clear,150,2012-11-19 08:56:00
2:56 AM,32.0,19.9,61,29.90,10.0,South,11.5,-,N/A,,Clear,180,2012-11-19 09:56:00
3:56 AM,33.1,19.9,59,29.86,10.0,SW,13.8,-,N/A,,Clear,220,2012-11-19 10:56:00
4:56 AM,34.0,18.0,52,29.86,10.0,South,10.4,-,N/A,,Clear,180,2012-11-19 11:56:00
5:56 AM,30.9,18.0,59,29.87,10.0,South,6.9,-,N/A,,Clear,190,2012-11-19 12:56:00
6:56 AM,34.0,18.0,52,29.88,10.0,SSE,9.2,16.1,N/A,,Clear,160,2012-11-19 13:56:00
7:56 AM,30.0,19.0,64,29.89,10.0,SE,6.9,-,N/A,,Clear,130,2012-11-19 14:56:00
8:56 AM,32.0,19.9,61,29.88,10.0,South,5.8,-,N/A,,Clear,180,2012-11-19 15:56:00
9:56 AM,35.1,21.0,57,29.86,10.0,South,4.6,-,N/A,,Clear,190,2012-11-19 16:56:00
10:56 AM,35.1,23.0,61,29.86,10.0,ESE,6.9,-,N/A,,Clear,120,2012-11-19 17:56:00
11:56 AM,44.1,26.1,49,29.83,10.0,Calm,Calm,-,N/A,,Clear,0,2012-11-19 18:56:00
12:56 PM,52.0,28.9,41,29.79,10.0,WSW,25.3,-,N/A,,Clear,250,2012-11-19 19:56:00
1:04 PM,51.8,28.4,41,29.76,10.0,WSW,23.0,33.4,N/A,,Clear,250,2012-11-19 20:04:00
1:56 PM,52.0,30.9,45,29.77,10.0,West,9.2,-,N/A,,Clear,260,2012-11-19 20:56:00
2:27 PM,51.8,30.2,44,29.75,10.0,South,10.4,-,N/A,,Clear,190,2012-11-19 21:27:00
2:56 PM,51.1,30.0,44,29.79,10.0,WSW,9.2,-,N/A,,Scattered Clouds,240,2012-11-19 21:56:00
3:56 PM,48.0,30.0,50,29.76,10.0,SSW,6.9,-,N/A,,Clear,210,2012-11-19 22:56:00
4:56 PM,48.0,28.9,48,29.74,10.0,SSW,4.6,-,N/A,,Clear,200,2012-11-19 23:56:00
5:56 PM,45.0,30.0,56,29.73,10.0,South,9.2,-,N/A,,Clear,170,2012-11-20 00:56:00
6:56 PM,43.0,28.0,56,29.72,10.0,South,6.9,-,N/A,,Clear,180,2012-11-20 01:56:00
7:56 PM,44.1,28.0,53,29.70,10.0,Calm,Calm,-,N/A,,Clear,0,2012-11-20 02:56:00
8:56 PM,46.9,30.0,52,29.70,10.0,ESE,8.1,-,N/A,,Clear,110,2012-11-20 03:56:00
9:56 PM,48.0,30.0,50,29.68,10.0,South,6.9,-,N/A,,Mostly Cloudy,190,2012-11-20 04:56:00
10:56 PM,48.9,30.9,50,29.69,10.0,SSW,12.7,-,N/A,,Clear,210,2012-11-20 05:56:00
11:54 PM,51.8,32.0,47,29.65,10.0,SW,28.8,38.0,N/A,,Clear,220,2012-11-20 06:54:00
11:56 PM,52.0,32.0,47,29.65,10.0,SW,24.2,38.0,N/A,,Clear,230,2012-11-20 06:56:00